Showing default

GALILEO 21 (2C7), 43057

Orbit data source: Space-Track

GALILEO 21 (2C7), 43057 is a payload satellite owned by GNSS Agency (ESA) that was launched on Tue, 12 Dec 2017 UTC via an ARIANE 5ES launch vehicle from the French Guiana (FRGUI). Payloads include a variety of satellites, spacecraft, and rockets equipped with specific instruments for various scientific and technological missions. These include communications satellites like Starlink; space stations such as the ISS; scientific satellites like the Hubble; Earth observation satellites from companies like Planet Labs, Umbra, and HawkEye 360; GPS; miniature CubeSats for education and research; and military/defense satellites.

Loading next visibility...
GALILEO 21 (2C7) details
Identifier
43057, 2017-079C
Orbit
Active
Last TLE update2 days ago
Origin
Flag of ESAGNSS Agency (ESA)
ManufacturerOHB
MissionOperational Civil Navigation
Bus & MotorGALILEOSAT, AOCS
Mass715 kg wet, 700 kg dry
Launch date (UTC)
2017-12-12 (7 years ago)
Launch vehicle
ARIANE 5ES
Launch site
French Guiana (FRGUI)
Object type
Payload
Rocket body
Debris
Shape & HBRBox + 2 Pan, 14.71 m
Radar Cross Section9.223 m², Large (>1 m²)

Expand to show TLE details & history

TLE from 2 days ago
0 GALILEO 21 (2C7)
1 43057U 17079C   24359.28550297  .00000035  00000-0  00000-0 0  9992
2 43057  55.2580 236.3642 0003260 328.9527  31.1111  1.70473990 43789
Epoch: 2024-12-24T06:51Z
Definitive object data (Epoch: 2024-12-24T06:51:07.456Z)
Latitude0.00003°
Longitude40.29669°
Altitude23,214.181 km
Speed3.671 km/s
True Right ascension15h 45m 29s
True Declination0° 00' 00"
Sunlit
Object was in daylight at TLE epoch
Visualization TLE readout
Latitude-45.97379°
Longitude-5.51601°
Altitude23,230.137 km
Speed3.67 km/s
Apparent Right ascension12h 52m 42s
Apparent Declination-58° 07' 28"
Sunlit
Object is in daylight
Visualization observer readout
Local Sidereal Time12:08:26
Azimuth174.118° S
Elevation-8.477°
Doppler factor1
Orbital elements
Apogee altitude23,231.833 km
Perigee altitude23,212.534 km
Semi-major axis29,600.32 km
Eccentricity0.000326
Inclination55.258°
RAAN236.3642°
Arg. of periapsis328.9527°
True anomaly31.13041°
Mean anomaly31.1111°
Eccentric anomaly31.12075°
Mean motion0.42619 °/min
BSTARUnknown
Orbital period844.7 mins
Loading maneuver chart data...
Loading historical data...
Loading historical data...
Loading historical data...
Loading historical data...
Loading historical data...
Loading historical data...
Loading historical data...

GALILEO 21 (2C7) Visibility forecast

Observer location: undefined°, undefined

Span
Click to sort rows by Start time (UTC) header in descending order
Start Az.
Max El. time (UTC)
Max El. Az.
Max El.
End time (UTC)
End Az.
390 mins2024-12-26 13:55:52.769Z162.778° S2024-12-26 16:57:52.769Z94.926° ESE42.794°2024-12-26 20:25:52.769Z61.482° ENE
|